sat.trackr.live / text

‹ back to catalog

STARLINK-34830

NORAD 65405 · 2025-192B

PAYLOAD ACTIVE UNKNOWN

§ Identity

Operator
Country
US
Launch date
2025-08-31
Launch site
AFETR
Launch vehicle
Mass (kg)
RCS (m²)

Purposes: comms

External: N2YO · Heavens-Above · Gunter

§ Orbital elements

Epoch: 2026-09-20T13:53:53.686176Z

Period
94.01 min
Inclination
53.1566°
Eccentricity
0.0001184
Mean motion
15.31705344 rev/d
Perigee alt
469.9 km
Apogee alt
471.5 km
Semi-major
6,848.9 km
B*
-1.7245e-5
RAAN
45.6237°
Arg perigee
49.7493°
Mean anomaly
310.3612°
Rev number
5,925

§ Raw data

STARLINK-348301 65405U 25192B   26263.57909359 -.00000900  00000+0 -17245-4 0  99982 65405  53.1566  45.6237 0001184  49.7493 310.3612 15.31705344 59255

JSON: /api/v1/satellites/65405 · /tle

For live sub-satellite position, see the globe view (requires WebGL).

§ Visibility from observer

Set your observer location to see the next 7 days of passes ≥ 10°. The values pass through the URL so the page stays shareable.

No JS? Fill the form by hand. The geolocation button needs JavaScript.